Location: Kalberh�ni
(46.4610°N, 7.2453°E)
Time: 05:47:30
(UTC+00:00)

CZ-2D R/B - Pass Details

Date: 20 June 2021
Orbit: 791 x 845 km, 98.7° (Epoch: 28 July)

Event Time Altitude Azimuth Distance (km) Brightness Sun altitude
Rises 23:31:46 0° 34° (NE) 3,300 6.2 -20.1°
Reaches altitude 10° 23:36:02 10° 68° (ENE) 2,364 4.8 -20.1°
Maximum altitude 23:37:39 11° 86° (E) 2,267 4.5 -20.1°
Drops below altitude 10° 23:39:16 10° 105° (ESE) 2,361 4.4 -20.1°
Enters shadow 23:40:22 - 116° (ESE) 2,523 4.4 -20.1°
